Time,TemperatureF,DewpointF,PressureIn,WindDirection,WindDirectionDegrees,WindSpeedMPH,WindSpeedGustMPH,Humidity,HourlyPrecipIn,Conditions,Clouds,dailyrainin,SoftwareType,DateUTC
2013-07-03 00:00:00,55.6,34.6,0.00,NNW,334,2.7,2.7,45,0.00,,,0.00,VWS V13.01,2013-07-03 05:00:00,
2013-07-03 00:01:00,55.6,34.6,0.00,NNW,334,2.7,2.7,45,0.00,,,0.00,VWS V13.01,2013-07-03 05:01:00,
2013-07-03 00:02:00,55.6,34.6,0.00,NNW,334,2.7,2.7,45,0.00,,,0.00,VWS V13.01,2013-07-03 05:02:00,
2013-07-03 00:03:00,55.6,34.6,0.00,NNW,334,2.7,2.7,45,0.00,,,0.00,VWS V13.01,2013-07-03 05:03:00,
2013-07-03 00:04:00,55.6,34.6,0.00,NNW,334,2.2,2.7,45,0.00,,,0.00,VWS V13.01,2013-07-03 05:04:00,
2013-07-03 00:05:00,55.4,34.4,0.00,NNW,334,3.1,3.1,45,0.00,,,0.00,VWS V13.01,2013-07-03 05:05:00,
2013-07-03 00:06:00,55.4,34.4,0.00,NNW,334,2.7,3.1,45,0.00,,,0.00,VWS V13.01,2013-07-03 05:06:00,
2013-07-03 00:07:00,55.4,34.4,0.00,NNW,334,2.2,2.7,45,0.00,,,0.00,VWS V13.01,2013-07-03 05:07:00,
2013-07-03 00:08:00,55.4,34.4,0.00,NNW,334,2.7,2.7,45,0.00,,,0.00,VWS V13.01,2013-07-03 05:08:00,
2013-07-03 00:09:00,55.2,34.8,0.00,NNW,334,2.7,2.7,46,0.00,,,0.00,VWS V13.01,2013-07-03 05:09:00,
2013-07-03 00:10:00,55.2,34.8,0.00,NNW,334,2.7,2.7,46,0.00,,,0.00,VWS V13.01,2013-07-03 05:10:00,
2013-07-03 00:11:00,55.2,34.8,0.00,NNW,334,2.7,2.7,46,0.00,,,0.00,VWS V13.01,2013-07-03 05:11:00,
2013-07-03 00:12:00,55.0,34.7,0.00,NNW,334,3.1,3.1,46,0.00,,,0.00,VWS V13.01,2013-07-03 05:12:00,
2013-07-03 00:13:00,55.0,34.7,0.00,NNW,334,2.7,3.1,46,0.00,,,0.00,VWS V13.01,2013-07-03 05:13:00,
2013-07-03 00:14:00,55.0,34.7,0.00,NNW,334,2.7,3.1,46,0.00,,,0.00,VWS V13.01,2013-07-03 05:14:00,
2013-07-03 00:15:00,54.9,34.5,0.00,NNW,334,2.7,2.7,46,0.00,,,0.00,VWS V13.01,2013-07-03 05:15:00,
2013-07-03 00:16:00,54.9,34.5,0.00,NNW,334,2.7,3.1,46,0.00,,,0.00,VWS V13.01,2013-07-03 05:16:00,
2013-07-03 00:17:00,54.7,34.9,0.00,NNW,334,2.7,3.1,47,0.00,,,0.00,VWS V13.01,2013-07-03 05:17:00,
2013-07-03 00:18:00,54.7,34.9,0.00,NNW,334,2.7,3.1,47,0.00,,,0.00,VWS V13.01,2013-07-03 05:18:00,
2013-07-03 00:19:00,54.5,34.7,0.00,NNW,334,2.7,3.1,47,0.00,,,0.00,VWS V13.01,2013-07-03 05:19:00,
2013-07-03 00:20:00,54.5,34.7,0.00,NNW,334,2.7,3.1,47,0.00,,,0.00,VWS V13.01,2013-07-03 05:20:00,
2013-07-03 00:21:00,54.5,34.7,0.00,NNW,334,2.7,2.7,47,0.00,,,0.00,VWS V13.01,2013-07-03 05:21:00,
2013-07-03 00:22:00,54.5,34.7,0.00,NNW,334,2.7,2.7,47,0.00,,,0.00,VWS V13.01,2013-07-03 05:22:00,
2013-07-03 00:23:00,54.5,34.7,0.00,NNW,334,2.2,2.7,47,0.00,,,0.00,VWS V13.01,2013-07-03 05:23:00,
2013-07-03 00:24:00,54.3,34.5,0.00,NNW,334,2.7,2.7,47,0.00,,,0.00,VWS V13.01,2013-07-03 05:24:00,
2013-07-03 00:25:00,54.3,34.5,0.00,NNW,334,2.7,2.7,47,0.00,,,0.00,VWS V13.01,2013-07-03 05:25:00,
2013-07-03 00:26:00,54.3,34.5,0.00,NNW,334,2.7,2.7,47,0.00,,,0.00,VWS V13.01,2013-07-03 05:26:00,
2013-07-03 00:27:00,54.1,34.9,0.00,NNW,334,2.7,2.7,48,0.00,,,0.00,VWS V13.01,2013-07-03 05:27:00,
2013-07-03 00:28:00,54.1,34.9,0.00,NNW,334,2.7,2.7,48,0.00,,,0.00,VWS V13.01,2013-07-03 05:28:00,
2013-07-03 00:29:00,54.0,34.7,0.00,NNW,334,2.7,2.7,48,0.00,,,0.00,VWS V13.01,2013-07-03 05:29:00,
2013-07-03 00:30:00,54.0,34.7,0.00,NNW,334,2.7,2.7,48,0.00,,,0.00,VWS V13.01,2013-07-03 05:30:00,
2013-07-03 00:31:00,54.0,34.7,0.00,NNW,334,2.7,3.1,48,0.00,,,0.00,VWS V13.01,2013-07-03 05:31:00,
2013-07-03 00:32:00,54.0,34.7,0.00,NNW,334,2.7,2.7,48,0.00,,,0.00,VWS V13.01,2013-07-03 05:32:00,
2013-07-03 00:33:00,54.0,34.7,0.00,NNW,334,2.2,2.7,48,0.00,,,0.00,VWS V13.01,2013-07-03 05:33:00,
2013-07-03 00:34:00,53.8,34.6,0.00,NNW,334,0.0,0.0,48,0.00,,,0.00,VWS V13.01,2013-07-03 05:34:00,
2013-07-03 00:35:00,53.8,34.6,0.00,NNW,334,0.0,0.0,48,0.00,,,0.00,VWS V13.01,2013-07-03 05:35:00,
2013-07-03 00:36:00,53.8,34.6,0.00,NNW,334,0.0,0.0,48,0.00,,,0.00,VWS V13.01,2013-07-03 05:36:00,
2013-07-03 00:37:00,53.8,34.6,0.00,NNW,334,0.0,0.0,48,0.00,,,0.00,VWS V13.01,2013-07-03 05:37:00,
2013-07-03 00:38:00,53.8,34.6,0.00,NNW,334,0.0,0.0,48,0.00,,,0.00,VWS V13.01,2013-07-03 05:38:00,
2013-07-03 00:39:00,54.0,35.2,0.00,NNW,334,0.0,0.0,49,0.00,,,0.00,VWS V13.01,2013-07-03 05:39:00,
2013-07-03 00:40:00,54.0,35.2,0.00,NNW,334,0.0,0.0,49,0.00,,,0.00,VWS V13.01,2013-07-03 05:40:00,
2013-07-03 00:41:00,54.0,35.2,0.00,NNW,334,0.0,0.0,49,0.00,,,0.00,VWS V13.01,2013-07-03 05:41:00,
2013-07-03 00:42:00,54.1,35.4,0.00,NNW,334,0.0,0.0,49,0.00,,,0.00,VWS V13.01,2013-07-03 05:42:00,
2013-07-03 00:43:00,54.1,35.4,0.00,NNW,334,0.0,0.0,49,0.00,,,0.00,VWS V13.01,2013-07-03 05:43:00,
2013-07-03 00:44:00,54.1,35.4,0.00,NNW,334,0.0,0.0,49,0.00,,,0.00,VWS V13.01,2013-07-03 05:44:00,
2013-07-03 00:45:00,54.1,35.4,0.00,NNW,334,0.0,0.0,49,0.00,,,0.00,VWS V13.01,2013-07-03 05:45:00,
2013-07-03 00:46:00,54.1,35.4,0.00,NNW,334,0.0,0.0,49,0.00,,,0.00,VWS V13.01,2013-07-03 05:46:00,
2013-07-03 00:47:00,54.1,35.4,0.00,NNW,334,0.0,0.0,49,0.00,,,0.00,VWS V13.01,2013-07-03 05:47:00,
2013-07-03 00:48:00,54.1,35.9,0.00,NNW,334,0.0,0.0,50,0.00,,,0.00,VWS V13.01,2013-07-03 05:48:00,
2013-07-03 00:49:00,54.0,35.8,0.00,NNW,334,0.0,0.0,50,0.00,,,0.00,VWS V13.01,2013-07-03 05:49:00,
2013-07-03 00:50:00,54.0,35.2,0.00,NNW,334,0.0,0.0,49,0.00,,,0.00,VWS V13.01,2013-07-03 05:50:00,
2013-07-03 00:51:00,54.0,35.8,0.00,NNW,334,0.0,0.0,50,0.00,,,0.00,VWS V13.01,2013-07-03 05:51:00,
2013-07-03 00:52:00,54.1,35.9,0.00,NNW,334,0.0,0.0,50,0.00,,,0.00,VWS V13.01,2013-07-03 05:52:00,
2013-07-03 00:53:00,54.1,35.9,0.00,NNW,334,3.6,3.6,50,0.00,,,0.00,VWS V13.01,2013-07-03 05:53:00,
2013-07-03 00:54:00,54.1,36.4,0.00,NNW,334,2.7,3.1,51,0.00,,,0.00,VWS V13.01,2013-07-03 05:54:00,
2013-07-03 00:55:00,54.1,36.4,0.00,NNW,334,2.7,3.1,51,0.00,,,0.00,VWS V13.01,2013-07-03 05:55:00,
2013-07-03 00:56:00,54.1,36.4,0.00,NNW,334,0.0,3.1,51,0.00,,,0.00,VWS V13.01,2013-07-03 05:56:00,
2013-07-03 00:57:00,54.0,36.3,0.00,NNW,334,0.0,0.0,51,0.00,,,0.00,VWS V13.01,2013-07-03 05:57:00,
2013-07-03 00:58:00,54.0,36.3,0.00,NNW,334,0.0,0.0,51,0.00,,,0.00,VWS V13.01,2013-07-03 05:58:00,
2013-07-03 00:59:00,54.0,36.3,0.00,NNW,334,0.0,0.0,51,0.00,,,0.00,VWS V13.01,2013-07-03 05:59:00,
2013-07-03 01:00:00,53.8,36.1,0.00,NNW,334,0.0,0.0,51,0.00,,,0.00,VWS V13.01,2013-07-03 06:00:00,
2013-07-03 01:01:00,53.8,36.1,0.00,NNW,334,0.0,0.0,51,0.00,,,0.00,VWS V13.01,2013-07-03 06:01:00,
2013-07-03 01:02:00,53.6,35.9,0.00,NNW,334,2.7,2.7,51,0.00,,,0.00,VWS V13.01,2013-07-03 06:02:00,
2013-07-03 01:03:00,53.6,35.9,0.00,NNW,334,2.2,2.7,51,0.00,,,0.00,VWS V13.01,2013-07-03 06:03:00,
2013-07-03 01:04:00,53.6,35.9,0.00,NNW,334,2.7,3.1,51,0.00,,,0.00,VWS V13.01,2013-07-03 06:04:00,
2013-07-03 01:05:00,53.4,35.8,0.00,NNW,334,2.7,2.7,51,0.00,,,0.00,VWS V13.01,2013-07-03 06:05:00,
2013-07-03 01:06:00,53.4,36.2,0.00,NNW,334,2.2,3.1,52,0.00,,,0.00,VWS V13.01,2013-07-03 06:06:00,
2013-07-03 01:07:00,53.4,36.2,0.00,NNW,334,2.2,2.7,52,0.00,,,0.00,VWS V13.01,2013-07-03 06:07:00,
2013-07-03 01:08:00,53.4,36.2,0.00,NNW,334,2.2,2.7,52,0.00,,,0.00,VWS V13.01,2013-07-03 06:08:00,
2013-07-03 01:09:00,53.2,36.1,0.00,NNW,334,2.7,3.1,52,0.00,,,0.00,VWS V13.01,2013-07-03 06:09:00,
2013-07-03 01:10:00,53.2,36.1,0.00,NNW,334,3.1,3.1,52,0.00,,,0.00,VWS V13.01,2013-07-03 06:10:00,
2013-07-03 01:11:00,53.2,36.1,0.00,NNW,334,2.7,3.1,52,0.00,,,0.00,VWS V13.01,2013-07-03 06:11:00,
2013-07-03 01:12:00,53.1,35.9,0.00,NNW,334,0.0,2.7,52,0.00,,,0.00,VWS V13.01,2013-07-03 06:12:00,
2013-07-03 01:13:00,53.1,35.9,0.00,NNW,334,0.0,0.0,52,0.00,,,0.00,VWS V13.01,2013-07-03 06:13:00,
2013-07-03 01:14:00,53.1,35.9,0.00,NNW,334,0.0,0.0,52,0.00,,,0.00,VWS V13.01,2013-07-03 06:14:00,
2013-07-03 01:15:00,53.1,35.9,0.00,NNW,334,0.0,0.0,52,0.00,,,0.00,VWS V13.01,2013-07-03 06:15:00,
2013-07-03 01:16:00,53.1,35.9,0.00,NNW,334,0.0,0.0,52,0.00,,,0.00,VWS V13.01,2013-07-03 06:16:00,
2013-07-03 01:17:00,53.1,35.9,0.00,NNW,334,0.0,0.0,52,0.00,,,0.00,VWS V13.01,2013-07-03 06:17:00,
2013-07-03 01:18:00,53.1,35.9,0.00,NNW,334,0.0,0.0,52,0.00,,,0.00,VWS V13.01,2013-07-03 06:18:00,
2013-07-03 01:19:00,53.1,35.9,0.00,NNW,334,0.0,0.0,52,0.00,,,0.00,VWS V13.01,2013-07-03 06:19:00,
2013-07-03 01:20:00,53.1,35.9,0.00,NNW,334,0.0,0.0,52,0.00,,,0.00,VWS V13.01,2013-07-03 06:20:00,
2013-07-03 01:21:00,53.2,36.1,0.00,NNW,334,0.0,0.0,52,0.00,,,0.00,VWS V13.01,2013-07-03 06:21:00,
2013-07-03 01:22:00,53.4,36.2,0.00,NNW,334,0.0,0.0,52,0.00,,,0.00,VWS V13.01,2013-07-03 06:22:00,
2013-07-03 01:23:00,53.4,36.2,0.00,NNW,334,0.0,0.0,52,0.00,,,0.00,VWS V13.01,2013-07-03 06:23:00,
2013-07-03 01:24:00,53.6,35.9,0.00,NNW,334,0.0,0.0,51,0.00,,,0.00,VWS V13.01,2013-07-03 06:24:00,
2013-07-03 01:25:00,53.8,36.1,0.00,NNW,334,0.0,0.0,51,0.00,,,0.00,VWS V13.01,2013-07-03 06:25:00,
2013-07-03 01:26:00,54.0,36.3,0.00,NNW,334,0.0,0.0,51,0.00,,,0.00,VWS V13.01,2013-07-03 06:26:00,
2013-07-03 01:27:00,54.1,36.4,0.00,NNW,334,0.0,0.0,51,0.00,,,0.00,VWS V13.01,2013-07-03 06:27:00,
2013-07-03 01:28:00,54.1,36.4,0.00,NNW,334,0.0,0.0,51,0.00,,,0.00,VWS V13.01,2013-07-03 06:28:00,
2013-07-03 01:29:00,54.3,36.6,0.00,NNW,334,0.0,0.0,51,0.00,,,0.00,VWS V13.01,2013-07-03 06:29:00,
2013-07-03 01:30:00,54.3,36.6,0.00,NNW,334,0.0,0.0,51,0.00,,,0.00,VWS V13.01,2013-07-03 06:30:00,
2013-07-03 01:31:00,54.7,36.9,0.00,NNW,334,0.0,0.0,51,0.00,,,0.00,VWS V13.01,2013-07-03 06:31:00,
2013-07-03 01:32:00,54.7,36.9,0.00,NNW,334,0.0,0.0,51,0.00,,,0.00,VWS V13.01,2013-07-03 06:32:00,
2013-07-03 01:33:00,54.9,37.1,0.00,NNW,334,0.0,0.0,51,0.00,,,0.00,VWS V13.01,2013-07-03 06:33:00,
2013-07-03 01:34:00,54.7,36.9,0.00,NNW,334,0.0,0.0,51,0.00,,,0.00,VWS V13.01,2013-07-03 06:34:00,
2013-07-03 01:35:00,54.7,36.9,0.00,NNW,334,0.0,0.0,51,0.00,,,0.00,VWS V13.01,2013-07-03 06:35:00,
2013-07-03 01:36:00,54.7,36.9,0.00,NNW,334,0.0,0.0,51,0.00,,,0.00,VWS V13.01,2013-07-03 06:36:00,
2013-07-03 01:37:00,54.5,36.3,0.00,NNW,334,0.0,0.0,50,0.00,,,0.00,VWS V13.01,2013-07-03 06:37:00,
2013-07-03 01:38:00,54.5,36.3,0.00,NNW,334,0.0,0.0,50,0.00,,,0.00,VWS V13.01,2013-07-03 06:38:00,
2013-07-03 01:39:00,54.3,36.1,0.00,NNW,334,0.0,0.0,50,0.00,,,0.00,VWS V13.01,2013-07-03 06:39:00,
2013-07-03 01:40:00,54.1,35.9,0.00,NNW,334,0.0,0.0,50,0.00,,,0.00,VWS V13.01,2013-07-03 06:40:00,
2013-07-03 01:41:00,54.0,35.2,0.00,NNW,334,0.0,0.0,49,0.00,,,0.00,VWS V13.01,2013-07-03 06:41:00,
2013-07-03 01:42:00,53.8,35.1,0.00,NNW,334,0.0,0.0,49,0.00,,,0.00,VWS V13.01,2013-07-03 06:42:00,
2013-07-03 01:43:00,53.8,35.1,0.00,NNW,334,2.7,3.1,49,0.00,,,0.00,VWS V13.01,2013-07-03 06:43:00,
2013-07-03 01:44:00,53.8,35.1,0.00,NNW,334,2.7,3.1,49,0.00,,,0.00,VWS V13.01,2013-07-03 06:44:00,
2013-07-03 01:45:00,53.6,34.9,0.00,NNW,334,2.2,2.7,49,0.00,,,0.00,VWS V13.01,2013-07-03 06:45:00,
2013-07-03 01:46:00,53.4,34.8,0.00,NNW,334,0.0,2.2,49,0.00,,,0.00,VWS V13.01,2013-07-03 06:46:00,
2013-07-03 01:47:00,53.4,34.8,0.00,NNW,334,0.0,0.0,49,0.00,,,0.00,VWS V13.01,2013-07-03 06:47:00,
2013-07-03 01:48:00,53.2,34.6,0.00,NNW,334,0.0,0.0,49,0.00,,,0.00,VWS V13.01,2013-07-03 06:48:00,
2013-07-03 01:49:00,53.2,34.6,0.00,NNW,334,0.0,0.0,49,0.00,,,0.00,VWS V13.01,2013-07-03 06:49:00,
2013-07-03 01:50:00,53.2,35.1,0.00,NNW,334,0.0,0.0,50,0.00,,,0.00,VWS V13.01,2013-07-03 06:50:00,
2013-07-03 01:51:00,53.2,35.1,0.00,NNW,334,0.0,0.0,50,0.00,,,0.00,VWS V13.01,2013-07-03 06:51:00,
2013-07-03 01:52:00,53.4,35.3,0.00,NNW,334,0.0,0.0,50,0.00,,,0.00,VWS V13.01,2013-07-03 06:52:00,
2013-07-03 01:53:00,53.4,35.3,0.00,NNW,334,3.1,3.1,50,0.00,,,0.00,VWS V13.01,2013-07-03 06:53:00,
2013-07-03 01:54:00,53.4,35.3,0.00,NNW,334,2.7,3.1,50,0.00,,,0.00,VWS V13.01,2013-07-03 06:54:00,
2013-07-03 01:55:00,53.4,35.3,0.00,NNW,334,3.1,3.1,50,0.00,,,0.00,VWS V13.01,2013-07-03 06:55:00,
2013-07-03 01:56:00,53.4,35.3,0.00,NNW,334,3.1,3.1,50,0.00,,,0.00,VWS V13.01,2013-07-03 06:56:00,
2013-07-03 01:57:00,53.2,35.1,0.00,NNW,334,2.2,3.1,50,0.00,,,0.00,VWS V13.01,2013-07-03 06:57:00,
2013-07-03 01:58:00,53.1,34.9,0.00,NNW,334,0.0,2.7,50,0.00,,,0.00,VWS V13.01,2013-07-03 06:58:00,
2013-07-03 01:59:00,53.1,34.9,0.00,NNW,334,0.0,0.0,50,0.00,,,0.00,VWS V13.01,2013-07-03 06:59:00,
2013-07-03 02:00:00,53.1,34.9,0.00,NNW,334,0.0,0.0,50,0.00,,,0.00,VWS V13.01,2013-07-03 07:00:00,
2013-07-03 02:01:00,53.1,34.9,0.00,NNW,334,0.0,0.0,50,0.00,,,0.00,VWS V13.01,2013-07-03 07:01:00,
2013-07-03 02:02:00,53.1,34.9,0.00,NNW,334,0.0,0.0,50,0.00,,,0.00,VWS V13.01,2013-07-03 07:02:00,
2013-07-03 02:03:00,53.1,34.9,0.00,NNW,334,2.7,2.7,50,0.00,,,0.00,VWS V13.01,2013-07-03 07:03:00,
2013-07-03 02:04:00,53.1,34.9,0.00,NNW,334,2.7,3.1,50,0.00,,,0.00,VWS V13.01,2013-07-03 07:04:00,
2013-07-03 02:05:00,52.9,34.8,0.00,NNW,334,2.7,2.7,50,0.00,,,0.00,VWS V13.01,2013-07-03 07:05:00,
2013-07-03 02:06:00,52.9,34.8,0.00,NNW,334,2.7,2.7,50,0.00,,,0.00,VWS V13.01,2013-07-03 07:06:00,
2013-07-03 02:07:00,52.9,34.8,0.00,NNW,334,2.7,3.1,50,0.00,,,0.00,VWS V13.01,2013-07-03 07:07:00,
2013-07-03 02:08:00,52.7,34.6,0.00,NNW,334,2.2,2.7,50,0.00,,,0.00,VWS V13.01,2013-07-03 07:08:00,
2013-07-03 02:09:00,52.7,34.6,0.00,NNW,334,2.7,2.7,50,0.00,,,0.00,VWS V13.01,2013-07-03 07:09:00,
2013-07-03 02:10:00,52.5,34.4,0.00,NNW,334,0.0,2.7,50,0.00,,,0.00,VWS V13.01,2013-07-03 07:10:00,
2013-07-03 02:11:00,52.5,34.4,0.00,NNW,334,2.7,2.7,50,0.00,,,0.00,VWS V13.01,2013-07-03 07:11:00,
2013-07-03 02:12:00,52.5,34.4,0.00,NNW,334,2.2,2.7,50,0.00,,,0.00,VWS V13.01,2013-07-03 07:12:00,
2013-07-03 02:13:00,52.3,34.3,0.00,NNW,334,2.2,2.2,50,0.00,,,0.00,VWS V13.01,2013-07-03 07:13:00,
2013-07-03 02:14:00,52.5,34.9,0.00,NNW,334,2.2,2.7,51,0.00,,,0.00,VWS V13.01,2013-07-03 07:14:00,
2013-07-03 02:15:00,52.5,34.9,0.00,NNW,334,0.0,2.2,51,0.00,,,0.00,VWS V13.01,2013-07-03 07:15:00,
2013-07-03 02:16:00,52.5,34.9,0.00,NNW,334,0.0,0.0,51,0.00,,,0.00,VWS V13.01,2013-07-03 07:16:00,
2013-07-03 02:17:00,52.5,35.4,0.00,NNW,334,2.7,2.7,52,0.00,,,0.00,VWS V13.01,2013-07-03 07:17:00,
2013-07-03 02:18:00,52.5,35.4,0.00,NNW,334,2.2,2.2,52,0.00,,,0.00,VWS V13.01,2013-07-03 07:18:00,
2013-07-03 02:19:00,52.5,35.4,0.00,NNW,334,2.2,2.2,52,0.00,,,0.00,VWS V13.01,2013-07-03 07:19:00,
2013-07-03 02:20:00,52.5,35.4,0.00,NNW,334,2.2,2.2,52,0.00,,,0.00,VWS V13.01,2013-07-03 07:20:00,
2013-07-03 02:21:00,52.5,35.4,0.00,NNW,334,2.2,2.2,52,0.00,,,0.00,VWS V13.01,2013-07-03 07:21:00,
2013-07-03 02:22:00,52.5,35.9,0.00,NNW,334,2.2,2.2,53,0.00,,,0.00,VWS V13.01,2013-07-03 07:22:00,
2013-07-03 02:23:00,52.3,35.7,0.00,NNW,334,2.7,2.7,53,0.00,,,0.00,VWS V13.01,2013-07-03 07:23:00,
2013-07-03 02:24:00,52.3,35.7,0.00,NNW,334,2.7,2.7,53,0.00,,,0.00,VWS V13.01,2013-07-03 07:24:00,
2013-07-03 02:25:00,52.3,35.7,0.00,NNW,334,2.7,2.7,53,0.00,,,0.00,VWS V13.01,2013-07-03 07:25:00,
2013-07-03 23:09:00,66.2,41.8,0.00,SSW,200,4.0,4.0,41,0.00,,,0.00,VWS V13.01,2013-07-04 04:09:00,
2013-07-03 23:10:00,66.2,41.8,0.00,SSW,200,3.1,4.0,41,0.00,,,0.00,VWS V13.01,2013-07-04 04:10:00,
2013-07-03 23:15:00,66.4,43.2,0.00,South,171,5.4,5.4,43,0.00,,,0.00,VWS V13.01,2013-07-04 04:15:00,
2013-07-03 23:20:00,66.0,42.3,0.00,South,185,4.0,6.3,42,0.00,,,0.00,VWS V13.01,2013-07-04 04:20:00,
2013-07-03 23:25:00,66.0,42.3,0.00,SSE,168,4.0,4.0,42,0.00,,,0.00,VWS V13.01,2013-07-04 04:25:00,
2013-07-03 23:30:00,66.0,42.3,0.00,SSW,197,2.7,2.7,42,0.00,,,0.00,VWS V13.01,2013-07-04 04:30:00,
2013-07-03 23:35:00,65.8,42.1,0.00,South,186,3.6,3.6,42,0.00,,,0.00,VWS V13.01,2013-07-04 04:35:00,
2013-07-03 23:40:00,65.8,41.5,0.00,SSW,192,2.7,3.1,41,0.00,,,0.00,VWS V13.01,2013-07-04 04:40:00,
2013-07-03 23:45:00,65.8,42.7,0.00,South,186,3.6,5.8,43,0.00,,,0.00,VWS V13.01,2013-07-04 04:45:00,
2013-07-03 23:50:00,65.7,42.6,0.00,South,177,3.6,3.6,43,0.00,,,0.00,VWS V13.01,2013-07-04 04:50:00,
2013-07-03 23:55:00,65.7,43.2,0.00,South,171,5.4,6.3,44,0.00,,,0.00,VWS V13.01,2013-07-04 04:55:00,